Hovedside
METAR-TAF:

METAR-TAF

Lufthavner :

Visby, Gotland, Sverige

Visby lufthavn

breddegrad: 57-40N, lengdegrad: 018-21E, høyde over havet: 51 m

Gjeldene værobservasjon

Denne rapporten ble laget for 36 minutter siden, klokken 09:50 UTC
Vind 18 kt fra Sørvest
Temperatur 16°C
Luftfuktighet 68%
Trykk 999 hPa
Sikt 10 km eller mer
ingen skyer under 1500 m og ingen bygeskyer

METAR: ESSV 250950Z 22018KT CAVOK 16/10 Q0999

Tid: 12:26 (10:26 UTC)


TAF: fraværende

Værobservasjoner og værvarsel for over 4000 flyplasser (METAR- og TAF-rapporter).

Tilgjengelige stasjoner er representert av de røde og gule prikkene på kartet.

Hold musepekeren over prikken for å se navnet på stasjonen.

Klikk så for å se værobservasjoner og -varsler.

For å forandre kartet kan du klikke på den grønne knappen med svart kryss for å zoome inn, på den grønne knappen med strek for å zoome ut, eller på de grønne pilene for å se tilstøtende kart.


METAR-TAF: